Location: Basse Occidentale du Courleau
(48.3833°N, 4.8333°W)
Time: 04:35:34
(UTC+00:00)

Cosmos 2219 Rocket - Pass Details

Date: 05 July 2020
Orbit: 827 x 848 km, 71.0° (Epoch: 11 August)

Event Time Altitude Azimuth Distance (km) Brightness Sun altitude
Rises 22:12:13 0° 204° (SSW) 3,354 5.0 -13.1°
Reaches altitude 10° 22:14:38 10° 204° (SSW) 2,426 4.3 -13.3°
Maximum altitude 22:20:12 86° 116° (ESE) 838 2.1 -13.7°
Drops below altitude 10° 22:25:50 10° 29° (NNE) 2,452 5.1 -14.2°
Sets 22:28:17 0° 29° (NNE) 3,393 5.8 -14.4°
